Zurück zum Katalog

FENGYUN 1C DEB

AktivSSO
NORAD 29959·DEBRIS·🇨🇳 China

Gestartet May 10, 1999 von Taiyuan Satellite Launch Center

Loading…

Nächste Überflüge (nächste 24 Stunden)

TLE

AktuellSource: Space-Track

Epoche: Sep 14, 2026, 07:29 UTC

1 29959U 99025KH  26257.31203767  .00000276  00000-0  19248-3 0  9992
2 29959  98.7813 285.0161 0041010 272.9909 148.0365 14.06153422  8136

Verfolge FENGYUN 1C DEB in Echtzeit mit AllMySat

Download on the App Store